Location: Sevilla
(37.3933°N, 5.9839°W)
Time: 04:35:32
(UTC+02:00)

Vanguard 3 - Pass Details

Date: 25 June 2024
Orbit: 508 x 3231 km, 33.4° (Epoch: 15 July)

Event Time Altitude Azimuth Distance (km) Brightness Sun altitude
Rises 14:20:52 0° 274° (W) 4,415 10.9 75.9°
Reaches altitude 10° 14:24:38 10° 269° (W) 3,001 10.2 76.0°
Maximum altitude 14:30:57 42° 200° (SSW) 1,081 8.9 75.9°
Drops below altitude 10° 14:35:04 10° 128° (SE) 1,951 9.4 75.9°
Sets 14:37:03 0° 121° (ESE) 2,722 9.9 75.8°
